User: anonymous   Login
Location: Unspecified
(0.0000°N, 0.0000°E)
Time: 16:41:45
(UTC+00:00)
Language:

USA 238 - Orbit

View from above orbital plane
View from above orbital plane
View from above satellite
View from above satellite

Ground track
Ground track

The orbit data is extracted from the following two-line orbital elements,

1 38758U 12048A   17086.14132281 0.00000000  00000-0  00000-0 0    03
2 38758  63.4392 150.1105 0016000  20.9449 339.0551 13.40729813    02
Epoch (UTC): 27 March 2017 03:23:30
Eccentricity: 0.0016000
inclination: 63.4392°
perigee height: 1094 km
apogee height: 1118 km
right ascension of ascending node: 150.1105°
argument of perigee: 20.9449°
revolutions per day: 13.40729813
mean anomaly at epoch: 339.0551°
orbit number at epoch: 0

The dashed part of the orbit path shows where the satellite is in the earth's shadow,  

DLR